Date String (YYYY-MM-DD hh:mm:ss) UTC,Instrument flags,Ambient pressure (hPa),Sample flow (lpm),Bypass flow (lpm),Sample temperature (°C),Ambient temperature (°C),ASC tube jacket temperature (°C),LED temperature (°C),Box temperature (°C),Sample RH (%),Span deviation,Mass concentration (μg/m³),Mass concentration (μg/m³),Mass concentration (μg/m³)
DateTimeUTC,F1_M11,P_M11,Q1_M11,Q2_M11,T1_M11,T2_M11,T3_M11,T4_M11,T5_M11,U1_M11,ZSPAN_M11,X0_M11,X2_M11,X1_M11
2022-04-20 03:00:00,,0811.7,4.99,0.00,29.6,28.7,00.0,38.4,31.4,06.2,0000.0,0011.48,0003.56,0001.90
2022-04-20 03:01:00,,0811.7,5.02,0.00,29.6,28.7,00.0,38.4,31.4,06.2,0000.0,0010.84,0003.63,0001.91
2022-04-20 03:02:00,,0811.7,4.98,0.00,29.6,28.7,00.0,38.5,31.4,06.2,0000.0,0010.89,0003.64,0001.91
2022-04-20 03:03:00,,0811.7,5.00,0.00,29.6,28.8,00.0,38.5,31.4,06.2,0000.0,0010.97,0003.65,0001.92
2022-04-20 03:04:00,,0811.7,5.01,0.00,29.6,28.8,00.0,38.5,31.4,06.2,0000.0,0010.24,0003.66,0001.93
2022-04-20 03:05:00,,0811.7,4.99,0.00,29.6,28.8,00.0,38.5,31.4,06.2,0000.0,0009.34,0003.69,0001.94
2022-04-20 03:06:00,,0811.7,5.01,0.00,29.6,28.8,00.0,38.5,31.4,06.3,0000.0,0009.06,0003.71,0001.93
2022-04-20 03:07:00,,0811.7,4.99,0.00,29.6,28.8,00.0,38.5,31.4,06.2,0000.0,0008.59,0003.70,0001.92
2022-04-20 03:08:00,,0811.7,5.00,0.00,29.6,28.8,00.0,38.5,31.4,06.3,0000.0,0008.75,0003.74,0001.93
2022-04-20 03:09:00,,0811.7,5.02,0.00,29.7,28.8,00.0,38.5,31.4,06.3,0000.0,0008.91,0003.77,0001.93
2022-04-20 03:10:00,,0811.7,4.98,0.00,29.7,28.9,00.0,38.5,31.4,06.3,0000.0,0009.11,0003.82,0001.93
2022-04-20 03:11:00,,0811.7,5.01,0.00,29.7,28.9,00.0,38.6,31.5,06.3,0000.0,0009.10,0003.85,0001.94
2022-04-20 03:12:00,,0811.6,5.01,0.00,29.7,29.0,00.0,38.6,31.5,06.3,0000.0,0009.22,0003.88,0001.93
2022-04-20 03:13:00,,0811.7,4.99,0.00,29.8,29.0,00.0,38.6,31.5,06.3,0000.0,0009.42,0003.98,0001.94
2022-04-20 03:14:00,,0811.7,5.01,0.00,29.8,29.0,00.0,38.6,31.5,06.4,0000.0,0009.39,0004.00,0001.94
2022-04-20 03:15:00,,0811.8,5.00,0.00,29.8,29.0,00.0,38.6,31.6,06.4,0000.0,0009.60,0004.04,0001.96
2022-04-20 03:16:00,,0811.8,5.01,0.00,29.8,29.0,00.0,38.6,31.6,06.5,0000.0,0009.54,0004.00,0001.95
2022-04-20 03:17:00,,0811.9,4.98,0.00,29.9,29.0,00.0,38.7,31.7,06.5,0000.0,0009.56,0003.96,0001.96
2022-04-20 03:18:00,,0811.9,5.00,0.00,29.9,28.2,00.0,38.7,31.5,06.5,0000.0,0009.65,0003.97,0001.97
2022-04-20 03:19:00,,0811.9,5.01,0.00,29.7,26.0,00.0,38.7,31.0,06.6,0000.0,0009.69,0004.00,0001.99
2022-04-20 03:20:00,,0811.9,4.99,0.00,29.6,25.6,00.0,38.6,30.9,06.5,0000.0,0009.63,0003.98,0002.00
2022-04-20 03:21:00,,0811.9,5.01,0.00,29.5,26.0,00.0,38.6,31.0,06.6,0000.0,0009.54,0003.95,0002.01
2022-04-20 03:22:00,,0811.9,5.00,0.00,29.5,26.4,00.0,38.5,31.0,06.6,0000.0,0010.34,0003.93,0002.01
2022-04-20 03:23:00,,0811.9,5.00,0.00,29.4,26.8,00.0,38.5,31.0,06.5,0000.0,0010.57,0003.92,0002.01
2022-04-20 03:24:00,,0811.9,4.99,0.00,29.4,27.2,00.0,38.5,31.1,06.5,0000.0,0010.52,0003.81,0001.99
2022-04-20 03:25:00,,0811.9,5.01,0.00,29.4,27.5,00.0,38.5,31.1,06.6,0000.0,0010.57,0003.78,0001.98
2022-04-20 03:26:00,,0811.9,4.99,0.00,29.4,27.7,00.0,38.4,31.1,06.6,0000.0,0010.60,0003.81,0001.97
2022-04-20 03:27:00,,0811.9,5.01,0.00,29.5,27.9,00.0,38.4,31.2,06.7,0000.0,0010.45,0003.77,0001.97
2022-04-20 03:28:00,,0811.9,4.98,0.00,29.5,28.1,00.0,38.4,31.2,06.6,0000.0,0010.42,0003.78,0001.96
2022-04-20 03:29:00,,0812.0,5.01,0.00,29.5,28.2,00.0,38.4,31.2,06.5,0000.0,0010.39,0003.79,0001.95
2022-04-20 03:30:00,,0811.9,5.00,0.00,29.5,28.3,00.0,38.4,31.2,06.5,0000.0,0010.88,0003.75,0001.93
2022-04-20 03:31:00,,0812.0,4.99,0.00,29.5,28.3,00.0,38.4,31.2,06.6,0000.0,0010.85,0003.71,0001.92
2022-04-20 03:32:00,,0811.9,5.00,0.00,29.5,28.4,00.0,38.4,31.2,06.5,0000.0,0011.16,0003.74,0001.92
2022-04-20 03:33:00,,0811.9,5.01,0.00,29.4,28.4,00.0,38.4,31.2,06.5,0000.0,0010.90,0003.75,0001.90
2022-04-20 03:34:00,,0811.9,4.99,0.00,29.4,28.4,00.0,38.4,31.2,06.6,0000.0,0010.59,0003.75,0001.90
2022-04-20 03:35:00,,0811.9,5.01,0.00,29.4,28.4,00.0,38.4,31.2,06.6,0000.0,0010.41,0003.77,0001.92
2022-04-20 03:36:00,,0811.9,5.00,0.00,29.4,28.4,00.0,38.4,31.2,06.6,0000.0,0010.21,0003.80,0001.93
2022-04-20 03:37:00,,0811.9,5.00,0.00,29.4,28.4,00.0,38.4,31.1,06.6,0000.0,0010.05,0003.74,0001.91
2022-04-20 03:38:00,,0811.9,5.00,0.00,29.4,28.5,00.0,38.4,31.1,06.7,0000.0,0010.08,0003.75,0001.92
2022-04-20 03:39:00,,0811.9,5.00,0.00,29.4,28.5,00.0,38.4,31.1,06.9,0000.0,0011.00,0003.75,0001.92
2022-04-20 03:40:00,,0811.9,5.00,0.00,29.4,28.5,00.0,38.4,31.2,06.6,0000.0,0011.12,0003.77,0001.92
2022-04-20 03:41:00,,0812.0,5.01,0.00,29.4,28.6,00.0,38.4,31.2,06.6,0000.0,0011.27,0003.82,0001.94
2022-04-20 03:42:00,,0811.9,4.99,0.00,29.4,28.5,00.0,38.4,31.1,06.6,0000.0,0011.64,0003.85,0001.96
2022-04-20 03:43:00,,0811.9,4.99,0.00,29.4,28.5,00.0,38.4,31.2,06.6,0000.0,0012.13,0003.86,0001.96
2022-04-20 03:44:00,,0811.9,5.02,0.00,29.4,28.5,00.0,38.4,31.2,06.6,0000.0,0012.71,0003.91,0001.97
2022-04-20 03:45:00,,0811.9,4.99,0.00,29.4,28.5,00.0,38.4,31.1,06.4,0000.0,0013.15,0003.92,0001.96
2022-04-20 03:46:00,,0811.9,5.01,0.00,29.4,28.6,00.0,38.4,31.2,06.4,0000.0,0013.24,0003.94,0001.95
2022-04-20 03:47:00,,0811.9,4.99,0.00,29.4,28.6,00.0,38.4,31.2,06.5,0000.0,0013.39,0003.98,0001.95
2022-04-20 03:48:00,,0811.9,5.01,0.00,29.4,28.5,00.0,38.4,31.2,06.5,0000.0,0013.50,0004.00,0001.94
2022-04-20 03:49:00,,0811.9,5.00,0.00,29.4,28.5,00.0,38.4,31.1,06.6,0000.0,0013.55,0004.00,0001.94
2022-04-20 03:50:00,,0812.0,4.99,0.00,29.4,28.5,00.0,38.4,31.1,06.7,0000.0,0013.52,0004.02,0001.95
2022-04-20 03:51:00,,0811.9,5.00,0.00,29.4,28.5,00.0,38.4,31.1,06.7,0000.0,0013.46,0004.01,0001.97
2022-04-20 03:52:00,,0811.9,5.02,0.00,29.4,28.5,00.0,38.4,31.1,06.6,0000.0,0013.84,0004.00,0001.95
2022-04-20 03:53:00,,0811.9,5.00,0.00,29.4,28.6,00.0,38.4,31.1,06.7,0000.0,0013.73,0003.95,0001.92
2022-04-20 03:54:00,,0812.0,5.00,0.00,29.4,28.6,00.0,38.4,31.2,06.8,0000.0,0012.91,0003.91,0001.90
2022-04-20 03:55:00,,0811.9,5.00,0.00,29.4,28.6,00.0,38.4,31.2,06.7,0000.0,0012.35,0003.86,0001.88
2022-04-20 03:56:00,,0811.9,4.98,0.00,29.5,28.6,00.0,38.4,31.2,06.6,0000.0,0012.23,0003.79,0001.86
2022-04-20 03:57:00,,0811.9,5.02,0.00,29.5,28.7,00.0,38.4,31.3,06.6,0000.0,0012.70,0003.78,0001.84
2022-04-20 03:58:00,,0811.9,4.99,0.00,29.5,28.7,00.0,38.4,31.3,06.6,0000.0,0013.18,0003.69,0001.81
2022-04-20 03:59:00,,0811.9,5.01,0.00,29.5,28.7,00.0,38.4,31.3,06.6,0000.0,0013.25,0003.67,0001.79
